Time,TemperatureF,DewpointF,PressureIn,WindDirection,WindDirectionDegrees,WindSpeedMPH,WindSpeedGustMPH,Humidity,HourlyPrecipIn,Conditions,Clouds,dailyrainin,SoftwareType,DateUTC
2013-01-12 00:01:00,67.2,65.1,29.80,SE,143,1.0,4.0,93,0.00,,---,0.00,VWS V14.01,2013-01-12 06:01:00,
2013-01-12 00:06:00,67.2,65.1,29.80,East,89,5.0,7.0,93,0.00,,---,0.00,VWS V14.01,2013-01-12 06:06:00,
2013-01-12 00:11:00,67.2,65.1,29.80,South,170,5.0,8.0,93,0.00,,---,0.00,VWS V14.01,2013-01-12 06:11:00,
2013-01-12 00:16:00,67.2,65.1,29.81,SSE,166,2.0,8.0,93,0.00,,---,0.00,VWS V14.01,2013-01-12 06:16:00,
2013-01-12 00:21:00,67.2,65.1,29.81,SSE,158,4.0,8.0,93,0.00,,---,0.00,VWS V14.01,2013-01-12 06:21:00,
2013-01-12 00:26:00,67.2,65.1,29.82,SSE,153,2.0,8.0,93,0.00,,---,0.00,VWS V14.01,2013-01-12 06:26:00,
2013-01-12 00:31:00,67.1,65.0,29.81,SE,136,6.0,6.0,93,0.00,,---,0.00,VWS V14.01,2013-01-12 06:31:00,
2013-01-12 00:36:00,67.1,65.0,29.80,ESE,122,3.0,6.0,93,0.00,,---,0.00,VWS V14.01,2013-01-12 06:36:00,
2013-01-12 00:41:00,67.1,65.0,29.80,SSE,153,6.0,8.0,93,0.00,,---,0.00,VWS V14.01,2013-01-12 06:41:00,
2013-01-12 00:46:00,67.1,65.0,29.80,SE,143,1.0,9.0,93,0.00,,---,0.00,VWS V14.01,2013-01-12 06:46:00,
2013-01-12 00:51:00,67.1,65.0,29.80,ESE,122,4.0,9.0,93,0.00,,---,0.00,VWS V14.01,2013-01-12 06:51:00,
2013-01-12 00:56:00,67.0,64.9,29.80,SSW,194,3.0,9.0,93,0.00,,---,0.00,VWS V14.01,2013-01-12 06:56:00,
2013-01-12 01:01:00,67.0,64.9,29.80,ESE,102,6.0,6.0,93,0.00,,---,0.00,VWS V14.01,2013-01-12 07:01:00,
2013-01-12 01:06:00,67.0,64.9,29.80,South,174,6.0,7.0,93,0.00,,---,0.00,VWS V14.01,2013-01-12 07:06:00,
2013-01-12 01:11:00,67.1,65.0,29.80,South,174,4.0,11.0,93,0.00,,---,0.00,VWS V14.01,2013-01-12 07:11:00,
2013-01-12 01:16:00,67.1,65.0,29.80,SSE,150,2.0,11.0,93,0.00,,---,0.00,VWS V14.01,2013-01-12 07:16:00,
2013-01-12 01:21:00,67.1,65.0,29.79,SE,141,2.0,11.0,93,0.00,,---,0.00,VWS V14.01,2013-01-12 07:21:00,
2013-01-12 01:26:00,67.0,64.9,29.80,East,92,2.0,11.0,93,0.00,,---,0.00,VWS V14.01,2013-01-12 07:26:00,
2013-01-12 01:31:00,67.0,64.9,29.80,SE,143,2.0,4.0,93,0.00,,---,0.00,VWS V14.01,2013-01-12 07:31:00,
2013-01-12 01:36:00,67.1,65.0,29.80,SSW,200,2.0,9.0,93,0.00,,---,0.00,VWS V14.01,2013-01-12 07:36:00,
2013-01-12 01:41:00,67.1,65.0,29.80,SW,223,2.0,9.0,93,0.00,,---,0.00,VWS V14.01,2013-01-12 07:41:00,
2013-01-12 01:46:00,67.1,65.0,29.80,SE,142,3.0,9.0,93,0.00,,---,0.00,VWS V14.01,2013-01-12 07:46:00,
2013-01-12 01:51:00,67.1,65.0,29.80,SSE,151,4.0,9.0,93,0.00,,---,0.00,VWS V14.01,2013-01-12 07:51:00,
2013-01-12 01:56:00,67.1,65.0,29.80,South,178,2.0,9.0,93,0.00,,---,0.00,VWS V14.01,2013-01-12 07:56:00,
2013-01-12 02:01:00,67.2,65.1,29.80,SSE,162,3.0,4.0,93,0.00,,---,0.00,VWS V14.01,2013-01-12 08:01:00,
2013-01-12 02:06:00,67.2,65.1,29.80,South,184,4.0,5.0,93,0.00,,---,0.00,VWS V14.01,2013-01-12 08:06:00,
2013-01-12 02:11:00,67.2,65.1,29.80,SSE,163,2.0,6.0,93,0.00,,---,0.00,VWS V14.01,2013-01-12 08:11:00,
2013-01-12 02:16:00,67.3,65.2,29.80,SSE,162,3.0,7.0,93,0.00,,---,0.00,VWS V14.01,2013-01-12 08:16:00,
2013-01-12 02:21:00,67.3,65.2,29.79,SSW,192,3.0,8.0,93,0.00,,---,0.00,VWS V14.01,2013-01-12 08:21:00,
2013-01-12 02:26:00,67.3,65.2,29.78,ESE,117,2.0,8.0,93,0.00,,---,0.00,VWS V14.01,2013-01-12 08:26:00,
2013-01-12 02:31:00,67.3,65.2,29.79,SSW,195,4.0,4.0,93,0.00,,---,0.00,VWS V14.01,2013-01-12 08:31:00,
2013-01-12 02:36:00,67.4,65.3,29.79,South,169,4.0,9.0,93,0.00,,---,0.00,VWS V14.01,2013-01-12 08:36:00,
2013-01-12 02:41:00,67.5,65.4,29.78,SE,135,3.0,9.0,93,0.00,,---,0.00,VWS V14.01,2013-01-12 08:41:00,
2013-01-12 02:46:00,67.5,65.4,29.78,SSE,153,3.0,9.0,93,0.00,,---,0.00,VWS V14.01,2013-01-12 08:46:00,
2013-01-12 02:51:00,67.5,65.4,29.79,SSW,203,2.0,9.0,93,0.00,,---,0.00,VWS V14.01,2013-01-12 08:51:00,
2013-01-12 02:56:00,67.5,65.4,29.78,South,188,2.0,9.0,93,0.00,,---,0.00,VWS V14.01,2013-01-12 08:56:00,
2013-01-12 03:01:00,67.5,65.4,29.78,SE,134,1.0,4.0,93,0.00,,---,0.00,VWS V14.01,2013-01-12 09:01:00,
2013-01-12 03:06:00,67.4,65.3,29.78,SE,143,1.0,4.0,93,0.00,,---,0.00,VWS V14.01,2013-01-12 09:06:00,
2013-01-12 03:11:00,67.4,65.3,29.77,SE,141,1.0,6.0,93,0.00,,---,0.00,VWS V14.01,2013-01-12 09:11:00,
2013-01-12 03:16:00,67.5,65.4,29.77,SE,139,1.0,6.0,93,0.00,,---,0.00,VWS V14.01,2013-01-12 09:16:00,
2013-01-12 03:21:00,67.4,65.3,29.77,SE,128,2.0,6.0,93,0.00,,---,0.00,VWS V14.01,2013-01-12 09:21:00,
2013-01-12 03:26:00,67.4,65.3,29.77,SSW,197,2.0,8.0,93,0.00,,---,0.00,VWS V14.01,2013-01-12 09:26:00,
2013-01-12 03:31:00,67.5,65.4,29.77,SSE,148,4.0,4.0,93,0.00,,---,0.00,VWS V14.01,2013-01-12 09:31:00,
2013-01-12 03:36:00,67.5,65.4,29.76,SSE,155,3.0,7.0,93,0.00,,---,0.00,VWS V14.01,2013-01-12 09:36:00,
2013-01-12 03:41:00,67.5,65.4,29.76,SSE,167,3.0,7.0,93,0.00,,---,0.00,VWS V14.01,2013-01-12 09:41:00,
2013-01-12 03:46:00,67.6,65.5,29.76,SSE,163,4.0,7.0,93,0.00,,---,0.00,VWS V14.01,2013-01-12 09:46:00,
2013-01-12 03:51:00,67.6,65.5,29.76,SW,225,4.0,7.0,93,0.00,,---,0.00,VWS V14.01,2013-01-12 09:51:00,
2013-01-12 03:56:00,67.6,65.5,29.75,South,172,1.0,7.0,93,0.00,,---,0.00,VWS V14.01,2013-01-12 09:56:00,
2013-01-12 04:01:00,67.6,65.5,29.75,SSE,160,4.0,5.0,93,0.00,,---,0.00,VWS V14.01,2013-01-12 10:01:00,
2013-01-12 04:06:00,67.5,65.7,29.75,South,170,3.0,5.0,94,0.00,,---,0.00,VWS V14.01,2013-01-12 10:06:00,
2013-01-12 04:11:00,67.5,65.7,29.74,SE,142,1.0,6.0,94,0.00,,---,0.00,VWS V14.01,2013-01-12 10:11:00,
2013-01-12 04:16:00,67.5,65.7,29.74,SSE,150,3.0,6.0,94,0.00,,---,0.00,VWS V14.01,2013-01-12 10:16:00,
2013-01-12 04:21:00,67.4,65.6,29.74,SSE,166,1.0,6.0,94,0.00,,---,0.00,VWS V14.01,2013-01-12 10:21:00,
2013-01-12 04:26:00,67.3,65.5,29.75,SSW,204,4.0,6.0,94,0.00,,---,0.00,VWS V14.01,2013-01-12 10:26:00,
2013-01-12 04:31:00,67.4,65.6,29.74,SSW,197,5.0,5.0,94,0.00,,---,0.00,VWS V14.01,2013-01-12 10:31:00,
2013-01-12 04:36:00,67.3,65.5,29.74,SW,215,3.0,5.0,94,0.00,,---,0.00,VWS V14.01,2013-01-12 10:36:00,
2013-01-12 04:41:00,67.3,65.8,29.74,SSE,162,2.0,5.0,95,0.00,,---,0.00,VWS V14.01,2013-01-12 10:41:00,
2013-01-12 04:46:00,67.3,65.8,29.74,ESE,122,4.0,8.0,95,0.00,,---,0.00,VWS V14.01,2013-01-12 10:46:00,
2013-01-12 04:51:00,67.2,65.7,29.73,South,179,2.0,8.0,95,0.00,,---,0.00,VWS V14.01,2013-01-12 10:51:00,
2013-01-12 04:56:00,67.2,65.7,29.74,SE,143,3.0,8.0,95,0.00,,---,0.00,VWS V14.01,2013-01-12 10:56:00,
2013-01-12 05:01:00,67.2,65.7,29.74,SSE,167,3.0,7.0,95,0.00,,---,0.00,VWS V14.01,2013-01-12 11:01:00,
2013-01-12 05:06:00,67.2,65.7,29.73,SE,143,3.0,7.0,95,0.00,,---,0.00,VWS V14.01,2013-01-12 11:06:00,
2013-01-12 05:11:00,67.1,65.6,29.73,South,184,3.0,8.0,95,0.00,,---,0.00,VWS V14.01,2013-01-12 11:11:00,
2013-01-12 05:16:00,67.1,65.6,29.73,SSW,207,3.0,8.0,95,0.00,,---,0.00,VWS V14.01,2013-01-12 11:16:00,
2013-01-12 05:21:00,67.1,65.6,29.73,South,173,3.0,8.0,95,0.00,,---,0.00,VWS V14.01,2013-01-12 11:21:00,
2013-01-12 05:26:00,67.1,65.6,29.73,SSW,205,1.0,8.0,95,0.00,,---,0.00,VWS V14.01,2013-01-12 11:26:00,
2013-01-12 05:31:00,67.1,65.6,29.72,SSE,149,1.0,2.0,95,0.00,,---,0.00,VWS V14.01,2013-01-12 11:31:00,
2013-01-12 05:36:00,67.1,65.6,29.72,SSE,167,1.0,3.0,95,0.00,,---,0.00,VWS V14.01,2013-01-12 11:36:00,
2013-01-12 05:41:00,67.1,65.6,29.73,SSE,163,1.0,3.0,95,0.00,,---,0.00,VWS V14.01,2013-01-12 11:41:00,
2013-01-12 05:46:00,67.0,65.5,29.73,SSE,156,0.0,3.0,95,0.00,,---,0.00,VWS V14.01,2013-01-12 11:46:00,
2013-01-12 05:51:00,67.0,65.5,29.72,ESE,115,1.0,3.0,95,0.00,,---,0.00,VWS V14.01,2013-01-12 11:51:00,
2013-01-12 05:55:00,66.9,65.4,29.72,East,94,2.0,3.0,95,0.00,,---,0.00,VWS V14.01,2013-01-12 11:55:00,
2013-01-12 06:00:00,66.9,65.7,29.72,ESE,118,2.0,2.0,96,0.00,,---,0.00,VWS V14.01,2013-01-12 12:00:00,
2013-01-12 06:05:00,66.9,65.7,29.72,ESE,103,2.0,3.0,96,0.00,,---,0.00,VWS V14.01,2013-01-12 12:05:00,
2013-01-12 06:10:00,66.9,65.7,29.72,ESE,119,1.0,4.0,96,0.00,,---,0.00,VWS V14.01,2013-01-12 12:10:00,
2013-01-12 06:15:00,67.0,65.8,29.72,East,89,2.0,4.0,96,0.00,,---,0.00,VWS V14.01,2013-01-12 12:15:00,
2013-01-12 06:20:00,67.0,65.8,29.73,ENE,77,2.0,4.0,96,0.00,,---,0.00,VWS V14.01,2013-01-12 12:20:00,
2013-01-12 06:25:00,67.1,65.6,29.73,ESE,121,2.0,4.0,95,0.00,,---,0.00,VWS V14.01,2013-01-12 12:25:00,
2013-01-12 06:30:00,67.2,65.7,29.73,SE,135,2.0,4.0,95,0.00,,---,0.00,VWS V14.01,2013-01-12 12:30:00,
2013-01-12 06:35:00,67.3,65.8,29.72,ESE,114,5.0,5.0,95,0.00,,---,0.00,VWS V14.01,2013-01-12 12:35:00,
2013-01-12 06:40:00,67.4,65.9,29.71,East,91,6.0,9.0,95,0.00,,---,0.00,VWS V14.01,2013-01-12 12:40:00,
2013-01-12 06:45:00,67.5,66.0,29.71,East,99,6.0,11.0,95,0.00,,---,0.00,VWS V14.01,2013-01-12 12:45:00,
2013-01-12 06:50:00,67.7,66.2,29.71,ESE,105,4.0,11.0,95,0.00,,---,0.00,VWS V14.01,2013-01-12 12:50:00,
2013-01-12 06:55:00,67.8,66.0,29.72,ESE,115,6.0,11.0,94,0.00,,---,0.00,VWS V14.01,2013-01-12 12:55:00,
2013-01-12 07:00:00,67.9,66.1,29.72,SSE,161,2.0,4.0,94,0.00,,---,0.00,VWS V14.01,2013-01-12 13:00:00,
2013-01-12 07:05:00,68.1,66.3,29.72,ESE,102,4.0,6.0,94,0.00,,---,0.00,VWS V14.01,2013-01-12 13:05:00,
2013-01-12 07:10:00,68.2,66.1,29.72,SSE,165,2.0,7.0,93,0.00,,---,0.00,VWS V14.01,2013-01-12 13:10:00,
2013-01-12 07:15:00,68.2,66.1,29.72,ESE,116,3.0,7.0,93,0.00,,---,0.00,VWS V14.01,2013-01-12 13:15:00,
2013-01-12 07:20:00,68.3,66.2,29.72,SSE,166,3.0,8.0,93,0.00,,---,0.00,VWS V14.01,2013-01-12 13:20:00,
2013-01-12 07:25:00,68.4,66.3,29.72,East,88,2.0,8.0,93,0.00,,---,0.00,VWS V14.01,2013-01-12 13:25:00,
2013-01-12 07:30:00,68.4,66.3,29.73,SE,146,4.0,5.0,93,0.00,,---,0.00,VWS V14.01,2013-01-12 13:30:00,
2013-01-12 07:35:00,68.5,66.4,29.73,ESE,107,5.0,7.0,93,0.00,,---,0.00,VWS V14.01,2013-01-12 13:35:00,
2013-01-12 07:40:00,68.6,66.2,29.73,SSE,150,2.0,10.0,92,0.00,,---,0.00,VWS V14.01,2013-01-12 13:40:00,
2013-01-12 07:45:00,68.6,66.2,29.74,SSE,167,3.0,10.0,92,0.00,,---,0.00,VWS V14.01,2013-01-12 13:45:00,
2013-01-12 07:50:00,68.6,66.2,29.74,SSE,168,5.0,10.0,92,0.00,,---,0.00,VWS V14.01,2013-01-12 13:50:00,
2013-01-12 07:55:00,68.6,66.2,29.74,SE,143,3.0,10.0,92,0.00,,---,0.00,VWS V14.01,2013-01-12 13:55:00,
2013-01-12 08:00:00,68.6,66.2,29.74,SSE,152,3.0,4.0,92,0.00,,---,0.00,VWS V14.01,2013-01-12 14:00:00,
2013-01-12 08:05:00,68.6,66.2,29.73,SSE,166,3.0,6.0,92,0.00,,---,0.00,VWS V14.01,2013-01-12 14:05:00,
2013-01-12 08:10:00,68.6,66.2,29.73,SSE,153,2.0,7.0,92,0.00,,---,0.00,VWS V14.01,2013-01-12 14:10:00,
2013-01-12 08:15:00,68.6,66.2,29.73,SSW,197,4.0,9.0,92,0.00,,---,0.00,VWS V14.01,2013-01-12 14:15:00,
2013-01-12 08:20:00,68.8,66.4,29.74,ESE,109,4.0,9.0,92,0.00,,---,0.00,VWS V14.01,2013-01-12 14:20:00,
2013-01-12 08:25:00,68.8,66.4,29.74,SSE,165,2.0,9.0,92,0.00,,---,0.00,VWS V14.01,2013-01-12 14:25:00,
2013-01-12 08:30:00,68.9,66.5,29.74,SE,135,3.0,7.0,92,0.00,,---,0.00,VWS V14.01,2013-01-12 14:30:00,
2013-01-12 08:35:00,69.0,66.6,29.74,SSE,167,4.0,9.0,92,0.00,,---,0.00,VWS V14.01,2013-01-12 14:35:00,
2013-01-12 08:40:00,69.1,66.7,29.74,East,98,9.0,9.0,92,0.00,,---,0.00,VWS V14.01,2013-01-12 14:40:00,
2013-01-12 08:45:00,69.2,66.8,29.74,SE,146,4.0,9.0,92,0.00,,---,0.00,VWS V14.01,2013-01-12 14:45:00,
2013-01-12 08:50:00,69.2,66.8,29.74,ESE,120,7.0,9.0,92,0.00,,---,0.00,VWS V14.01,2013-01-12 14:50:00,
2013-01-12 08:55:00,69.3,66.6,29.74,South,179,3.0,9.0,91,0.00,,---,0.00,VWS V14.01,2013-01-12 14:55:00,
2013-01-12 09:00:00,69.3,66.6,29.74,SSE,162,4.0,7.0,91,0.00,,---,0.00,VWS V14.01,2013-01-12 15:00:00,
2013-01-12 09:05:00,69.3,66.6,29.74,SSE,147,4.0,7.0,91,0.00,,---,0.00,VWS V14.01,2013-01-12 15:05:00,
2013-01-12 09:10:00,69.4,67.0,29.74,ESE,121,4.0,7.0,92,0.00,,---,0.00,VWS V14.01,2013-01-12 15:10:00,
2013-01-12 09:15:00,69.4,66.7,29.74,SE,139,2.0,7.0,91,0.00,,---,0.00,VWS V14.01,2013-01-12 15:15:00,
2013-01-12 09:20:00,69.4,66.7,29.74,South,172,2.0,7.0,91,0.00,,---,0.00,VWS V14.01,2013-01-12 15:20:00,
2013-01-12 09:25:00,69.4,66.7,29.74,South,174,4.0,8.0,91,0.00,,---,0.00,VWS V14.01,2013-01-12 15:25:00,
2013-01-12 09:30:00,69.4,66.7,29.74,SE,145,5.0,6.0,91,0.00,,---,0.00,VWS V14.01,2013-01-12 15:30:00,
2013-01-12 09:35:00,69.5,66.8,29.75,SSW,192,4.0,10.0,91,0.00,,---,0.00,VWS V14.01,2013-01-12 15:35:00,
2013-01-12 09:40:00,69.5,66.8,29.74,SSE,160,6.0,10.0,91,0.00,,---,0.00,VWS V14.01,2013-01-12 15:40:00,
2013-01-12 09:45:00,69.6,66.9,29.74,SSE,153,4.0,10.0,91,0.00,,---,0.00,VWS V14.01,2013-01-12 15:45:00,
2013-01-12 09:50:00,69.7,67.0,29.74,South,174,4.0,11.0,91,0.00,,---,0.00,VWS V14.01,2013-01-12 15:50:00,
2013-01-12 09:55:00,69.8,67.1,29.75,ESE,106,3.0,11.0,91,0.00,,---,0.00,VWS V14.01,2013-01-12 15:55:00,
2013-01-12 10:00:00,69.8,67.1,29.75,SSE,151,5.0,6.0,91,0.00,,---,0.00,VWS V14.01,2013-01-12 16:00:00,
2013-01-12 10:05:00,69.8,66.7,29.75,SSE,155,4.0,8.0,90,0.00,,---,0.00,VWS V14.01,2013-01-12 16:05:00,
2013-01-12 10:10:00,69.8,66.7,29.74,SSE,155,3.0,8.0,90,0.00,,---,0.00,VWS V14.01,2013-01-12 16:10:00,
2013-01-12 10:15:00,69.8,66.7,29.74,SSE,150,4.0,9.0,90,0.00,,---,0.00,VWS V14.01,2013-01-12 16:15:00,
2013-01-12 10:20:00,69.9,66.8,29.73,SE,130,8.0,9.0,90,0.00,,---,0.00,VWS V14.01,2013-01-12 16:20:00,
2013-01-12 10:25:00,69.9,66.8,29.73,South,177,4.0,12.0,90,0.00,,---,0.00,VWS V14.01,2013-01-12 16:25:00,
2013-01-12 10:30:00,70.0,66.9,29.73,SE,141,4.0,6.0,90,0.00,,---,0.00,VWS V14.01,2013-01-12 16:30:00,
2013-01-12 10:35:00,70.1,67.0,29.72,SE,130,8.0,10.0,90,0.00,,---,0.00,VWS V14.01,2013-01-12 16:35:00,
2013-01-12 10:40:00,70.1,67.0,29.71,ESE,116,6.0,10.0,90,0.00,,---,0.00,VWS V14.01,2013-01-12 16:40:00,
2013-01-12 10:45:00,70.1,66.7,29.69,East,94,11.0,14.0,89,0.00,,---,0.00,VWS V14.01,2013-01-12 16:45:00,
2013-01-12 10:50:00,70.2,66.8,29.71,South,173,4.0,14.0,89,0.00,,---,0.00,VWS V14.01,2013-01-12 16:50:00,
2013-01-12 10:55:00,70.3,66.9,29.72,SSE,158,4.0,14.0,89,0.00,,---,0.00,VWS V14.01,2013-01-12 16:55:00,
2013-01-12 11:00:00,70.2,66.8,29.72,SSW,205,5.0,5.0,89,0.00,,---,0.00,VWS V14.01,2013-01-12 17:00:00,
2013-01-12 11:05:00,70.3,66.9,29.72,SE,145,3.0,8.0,89,0.00,,---,0.00,VWS V14.01,2013-01-12 17:05:00,
2013-01-12 11:10:00,70.3,66.9,29.71,SE,145,3.0,9.0,89,0.00,,---,0.00,VWS V14.01,2013-01-12 17:10:00,
2013-01-12 11:15:00,70.3,66.9,29.72,SE,135,4.0,9.0,89,0.00,,---,0.00,VWS V14.01,2013-01-12 17:15:00,
2013-01-12 11:20:00,70.3,66.9,29.72,SSE,150,5.0,9.0,89,0.00,,---,0.00,VWS V14.01,2013-01-12 17:20:00,
2013-01-12 11:25:00,70.3,66.6,29.72,SSW,207,7.0,10.0,88,0.00,,---,0.00,VWS V14.01,2013-01-12 17:25:00,
2013-01-12 11:30:00,70.3,66.9,29.71,SSW,194,5.0,7.0,89,0.00,,---,0.00,VWS V14.01,2013-01-12 17:30:00,
2013-01-12 11:35:00,70.4,66.7,29.70,SW,214,4.0,10.0,88,0.00,,---,0.00,VWS V14.01,2013-01-12 17:35:00,
2013-01-12 11:40:00,70.4,66.7,29.70,SE,143,7.0,10.0,88,0.00,,---,0.00,VWS V14.01,2013-01-12 17:40:00,
2013-01-12 11:45:00,70.5,66.8,29.71,ESE,105,6.0,11.0,88,0.00,,---,0.00,VWS V14.01,2013-01-12 17:45:00,
2013-01-12 11:50:00,70.5,66.8,29.69,South,188,8.0,11.0,88,0.00,,---,0.00,VWS V14.01,2013-01-12 17:50:00,
2013-01-12 11:55:00,70.6,66.9,29.68,SSE,155,6.0,11.0,88,0.00,,---,0.00,VWS V14.01,2013-01-12 17:55:00,
2013-01-12 12:00:00,70.7,67.0,29.67,SW,217,8.0,8.0,88,0.00,,---,0.00,VWS V14.01,2013-01-12 18:00:00,
2013-01-12 12:05:00,70.8,67.1,29.68,SSW,205,5.0,8.0,88,0.00,,---,0.00,VWS V14.01,2013-01-12 18:05:00,
2013-01-12 12:10:00,70.9,67.2,29.68,SSE,162,1.0,8.0,88,0.00,,---,0.00,VWS V14.01,2013-01-12 18:10:00,
2013-01-12 12:15:00,70.9,66.8,29.69,SSW,195,4.0,8.0,87,0.00,,---,0.00,VWS V14.01,2013-01-12 18:15:00,
2013-01-12 12:20:00,70.9,66.8,29.69,South,181,4.0,9.0,87,0.00,,---,0.00,VWS V14.01,2013-01-12 18:20:00,
2013-01-12 12:25:00,70.8,66.7,29.69,SSW,194,3.0,9.0,87,0.00,,---,0.00,VWS V14.01,2013-01-12 18:25:00,
2013-01-12 12:30:00,70.8,66.7,29.69,SSW,203,2.0,4.0,87,0.00,,---,0.00,VWS V14.01,2013-01-12 18:30:00,
2013-01-12 12:35:00,70.7,66.7,29.66,ESE,122,2.0,9.0,87,0.00,,---,0.00,VWS V14.01,2013-01-12 18:35:00,
2013-01-12 12:40:00,70.6,66.6,29.67,West,270,1.0,9.0,87,0.00,,---,0.00,VWS V14.01,2013-01-12 18:40:00,
2013-01-12 12:45:00,70.6,66.6,29.67,SSW,197,3.0,9.0,87,0.00,,---,0.00,VWS V14.01,2013-01-12 18:45:00,
2013-01-12 12:50:00,70.6,66.6,29.68,SSE,155,4.0,9.0,87,0.00,,---,0.00,VWS V14.01,2013-01-12 18:50:00,
2013-01-12 12:55:00,70.6,66.6,29.68,SSW,205,4.0,9.0,87,0.00,,---,0.00,VWS V14.01,2013-01-12 18:55:00,
2013-01-12 13:00:00,70.7,66.7,29.69,SSW,198,2.0,3.0,87,0.00,,---,0.00,VWS V14.01,2013-01-12 19:00:00,
2013-01-12 13:05:00,70.9,66.8,29.68,SE,146,4.0,5.0,87,0.00,,---,0.00,VWS V14.01,2013-01-12 19:05:00,
2013-01-12 13:10:00,71.0,66.9,29.67,South,169,3.0,5.0,87,0.00,,---,0.00,VWS V14.01,2013-01-12 19:10:00,
2013-01-12 13:15:00,71.2,66.8,29.67,SSE,148,3.0,5.0,86,0.00,,---,0.00,VWS V14.01,2013-01-12 19:15:00,
2013-01-12 13:20:00,71.2,66.8,29.66,SE,124,3.0,7.0,86,0.00,,---,0.00,VWS V14.01,2013-01-12 19:20:00,
2013-01-12 13:25:00,71.4,67.0,29.65,WSW,241,3.0,7.0,86,0.00,,---,0.00,VWS V14.01,2013-01-12 19:25:00,
2013-01-12 13:30:00,71.6,66.9,29.66,South,191,2.0,5.0,85,0.00,,---,0.00,VWS V14.01,2013-01-12 19:30:00,
2013-01-12 13:35:00,71.8,67.1,29.65,SE,141,2.0,6.0,85,0.00,,---,0.00,VWS V14.01,2013-01-12 19:35:00,
2013-01-12 13:40:00,72.0,67.2,29.65,SSW,200,2.0,6.0,85,0.00,,---,0.00,VWS V14.01,2013-01-12 19:40:00,
2013-01-12 13:45:00,72.0,67.2,29.65,South,183,2.0,6.0,85,0.00,,---,0.00,VWS V14.01,2013-01-12 19:45:00,
2013-01-12 13:50:00,72.1,67.0,29.65,SE,129,3.0,6.0,84,0.00,,---,0.00,VWS V14.01,2013-01-12 19:50:00,
2013-01-12 13:55:00,72.4,67.3,29.65,SSE,154,3.0,7.0,84,0.00,,---,0.00,VWS V14.01,2013-01-12 19:55:00,
2013-01-12 14:00:00,72.5,67.1,29.65,SW,231,3.0,3.0,83,0.00,,---,0.00,VWS V14.01,2013-01-12 20:00:00,
2013-01-12 14:05:00,72.7,67.2,29.64,SSE,162,2.0,4.0,83,0.00,,---,0.00,VWS V14.01,2013-01-12 20:05:00,
2013-01-12 14:10:00,73.0,67.2,29.64,South,188,3.0,5.0,82,0.00,,---,0.00,VWS V14.01,2013-01-12 20:10:00,
2013-01-12 14:15:00,72.9,66.7,29.64,SSE,155,4.0,10.0,81,0.00,,---,0.00,VWS V14.01,2013-01-12 20:15:00,
2013-01-12 14:20:00,72.8,66.6,29.65,SSW,207,4.0,10.0,81,0.00,,---,0.00,VWS V14.01,2013-01-12 20:20:00,
2013-01-12 14:25:00,72.9,66.7,29.64,SSW,195,3.0,10.0,81,0.00,,---,0.00,VWS V14.01,2013-01-12 20:25:00,
2013-01-12 14:30:00,72.9,66.7,29.64,SSW,194,3.0,4.0,81,0.00,,---,0.00,VWS V14.01,2013-01-12 20:30:00,
2013-01-12 14:35:00,72.8,66.6,29.64,SSE,166,3.0,6.0,81,0.00,,---,0.00,VWS V14.01,2013-01-12 20:35:00,
2013-01-12 14:40:00,72.9,66.7,29.63,South,190,3.0,7.0,81,0.00,,---,0.00,VWS V14.01,2013-01-12 20:40:00,
2013-01-12 14:45:00,72.9,66.4,29.63,SSE,160,2.0,7.0,80,0.00,,---,0.00,VWS V14.01,2013-01-12 20:45:00,
2013-01-12 14:50:00,73.1,66.6,29.63,SSW,199,5.0,7.0,80,0.00,,---,0.00,VWS V14.01,2013-01-12 20:50:00,
2013-01-12 14:55:00,73.0,66.1,29.63,South,180,4.0,8.0,79,0.00,,---,0.00,VWS V14.01,2013-01-12 20:55:00,
2013-01-12 15:00:00,73.0,66.5,29.63,SSW,207,5.0,8.0,80,0.00,,---,0.00,VWS V14.01,2013-01-12 21:00:00,
2013-01-12 15:05:00,72.9,66.4,29.63,SSE,149,2.0,8.0,80,0.00,,---,0.00,VWS V14.01,2013-01-12 21:05:00,
2013-01-12 15:10:00,72.9,66.4,29.62,SSE,154,3.0,8.0,80,0.00,,---,0.00,VWS V14.01,2013-01-12 21:10:00,
2013-01-12 15:15:00,72.9,66.4,29.62,SSE,161,5.0,8.0,80,0.00,,---,0.00,VWS V14.01,2013-01-12 21:15:00,
2013-01-12 15:20:00,72.8,66.3,29.62,SSE,155,2.0,8.0,80,0.00,,---,0.00,VWS V14.01,2013-01-12 21:20:00,
2013-01-12 15:25:00,72.9,66.0,29.62,SE,146,2.0,8.0,79,0.00,,---,0.00,VWS V14.01,2013-01-12 21:25:00,
2013-01-12 15:30:00,72.9,66.0,29.62,SE,146,4.0,5.0,79,0.00,,---,0.00,VWS V14.01,2013-01-12 21:30:00,
2013-01-12 15:35:00,73.0,66.5,29.62,SSE,156,3.0,5.0,80,0.00,,---,0.00,VWS V14.01,2013-01-12 21:35:00,
2013-01-12 15:41:00,73.1,66.6,29.62,SE,139,3.0,7.0,80,0.00,,---,0.00,VWS V14.01,2013-01-12 21:41:00,
2013-01-12 15:46:00,73.1,66.2,29.63,South,177,3.0,7.0,79,0.00,,---,0.00,VWS V14.01,2013-01-12 21:46:00,
2013-01-12 15:51:00,73.1,66.2,29.63,SW,218,4.0,7.0,79,0.00,,---,0.00,VWS V14.01,2013-01-12 21:51:00,
2013-01-12 15:56:00,73.0,66.1,29.63,SW,221,6.0,7.0,79,0.00,,---,0.00,VWS V14.01,2013-01-12 21:56:00,
2013-01-12 16:01:00,72.9,66.0,29.63,South,181,3.0,5.0,79,0.00,,---,0.00,VWS V14.01,2013-01-12 22:01:00,
2013-01-12 16:06:00,72.9,66.4,29.63,SW,217,3.0,5.0,80,0.00,,---,0.00,VWS V14.01,2013-01-12 22:06:00,
2013-01-12 16:11:00,72.8,66.3,29.63,SSW,192,3.0,5.0,80,0.00,,---,0.00,VWS V14.01,2013-01-12 22:11:00,
2013-01-12 16:16:00,72.7,66.2,29.63,SW,219,2.0,5.0,80,0.00,,---,0.00,VWS V14.01,2013-01-12 22:16:00,
2013-01-12 16:21:00,72.7,66.2,29.63,South,181,2.0,5.0,80,0.00,,---,0.00,VWS V14.01,2013-01-12 22:21:00,
2013-01-12 16:26:00,72.7,66.2,29.63,SW,225,0.0,5.0,80,0.00,,---,0.00,VWS V14.01,2013-01-12 22:26:00,
2013-01-12 16:31:00,72.7,66.2,29.63,SW,215,1.0,1.0,80,0.00,,---,0.00,VWS V14.01,2013-01-12 22:31:00,
2013-01-12 16:36:00,72.6,66.1,29.63,SE,139,1.0,3.0,80,0.00,,---,0.00,VWS V14.01,2013-01-12 22:36:00,
2013-01-12 16:41:00,72.5,66.3,29.63,SW,214,1.0,3.0,81,0.00,,---,0.00,VWS V14.01,2013-01-12 22:41:00,
2013-01-12 16:46:00,72.4,66.2,29.63,SSW,210,1.0,3.0,81,0.00,,---,0.00,VWS V14.01,2013-01-12 22:46:00,
2013-01-12 16:52:00,72.2,66.1,29.63,SW,214,1.0,3.0,81,0.00,,---,0.00,VWS V14.01,2013-01-12 22:52:00,
2013-01-12 16:57:00,72.2,66.1,29.64,SSW,207,1.0,3.0,81,0.00,,---,0.00,VWS V14.01,2013-01-12 22:57:00,
2013-01-12 17:02:00,72.1,65.9,29.64,SW,219,0.0,0.0,81,0.00,,---,0.00,VWS V14.01,2013-01-12 23:02:00,
2013-01-12 17:07:00,72.1,66.3,29.64,SW,218,0.0,1.0,82,0.00,,---,0.00,VWS V14.01,2013-01-12 23:07:00,
2013-01-12 17:12:00,72.0,66.2,29.64,SW,218,0.0,1.0,82,0.00,,---,0.00,VWS V14.01,2013-01-12 23:12:00,
2013-01-12 17:17:00,71.9,65.8,29.64,South,191,0.0,1.0,81,0.00,,---,0.00,VWS V14.01,2013-01-12 23:17:00,
2013-01-12 17:22:00,71.8,66.0,29.64,SW,215,0.0,1.0,82,0.00,,---,0.00,VWS V14.01,2013-01-12 23:22:00,
2013-01-12 17:27:00,71.7,65.9,29.64,SW,215,0.0,1.0,82,0.00,,---,0.00,VWS V14.01,2013-01-12 23:27:00,
2013-01-12 17:32:00,71.5,65.7,29.64,SW,215,0.0,0.0,82,0.00,,---,0.00,VWS V14.01,2013-01-12 23:32:00,
2013-01-12 17:37:00,71.2,65.4,29.64,SW,215,0.0,0.0,82,0.00,,---,0.00,VWS V14.01,2013-01-12 23:37:00,
2013-01-12 17:42:00,70.9,65.5,29.65,SW,215,0.0,0.0,83,0.00,,---,0.00,VWS V14.01,2013-01-12 23:42:00,
2013-01-12 17:47:00,70.7,65.3,29.65,SW,215,0.0,1.0,83,0.00,,---,0.00,VWS V14.01,2013-01-12 23:47:00,
2013-01-12 17:53:00,70.5,65.1,29.65,West,259,0.0,1.0,83,0.00,,---,0.00,VWS V14.01,2013-01-12 23:53:00,
2013-01-12 17:58:00,70.3,65.2,29.65,SW,228,1.0,1.0,84,0.00,,---,0.00,VWS V14.01,2013-01-12 23:58:00,
2013-01-12 18:03:00,70.3,65.2,29.66,WNW,290,0.0,1.0,84,0.00,,---,0.00,VWS V14.01,2013-01-13 00:03:00,
2013-01-12 18:08:00,70.2,65.1,29.66,SSW,212,0.0,1.0,84,0.00,,---,0.00,VWS V14.01,2013-01-13 00:08:00,
2013-01-12 18:13:00,70.2,65.1,29.65,WSW,242,0.0,4.0,84,0.00,,---,0.00,VWS V14.01,2013-01-13 00:13:00,
2013-01-12 18:18:00,70.2,65.1,29.65,WNW,293,0.0,4.0,84,0.00,,---,0.00,VWS V14.01,2013-01-13 00:18:00,
2013-01-12 18:23:00,70.3,65.2,29.66,West,267,0.0,4.0,84,0.00,,---,0.00,VWS V14.01,2013-01-13 00:23:00,
2013-01-12 18:28:00,70.3,65.2,29.65,SW,232,0.0,4.0,84,0.00,,---,0.00,VWS V14.01,2013-01-13 00:28:00,
2013-01-12 18:33:00,70.3,65.2,29.66,SW,232,0.0,1.0,84,0.00,,---,0.00,VWS V14.01,2013-01-13 00:33:00,
2013-01-12 18:38:00,70.3,65.2,29.66,NW,325,0.0,2.0,84,0.00,,---,0.00,VWS V14.01,2013-01-13 00:38:00,
2013-01-12 18:43:00,70.2,65.1,29.66,NW,325,0.0,2.0,84,0.00,,---,0.00,VWS V14.01,2013-01-13 00:43:00,
2013-01-12 18:48:00,70.2,65.1,29.66,WSW,253,0.0,2.0,84,0.00,,---,0.00,VWS V14.01,2013-01-13 00:48:00,
2013-01-12 18:53:00,70.2,65.1,29.66,WNW,301,0.0,2.0,84,0.00,,---,0.00,VWS V14.01,2013-01-13 00:53:00,
2013-01-12 18:58:00,70.2,65.1,29.66,WSW,245,0.0,2.0,84,0.00,,---,0.00,VWS V14.01,2013-01-13 00:58:00,
2013-01-12 19:03:00,70.2,65.1,29.66,West,278,0.0,1.0,84,0.00,,---,0.00,VWS V14.01,2013-01-13 01:03:00,
2013-01-12 19:08:00,70.2,65.1,29.66,NW,321,2.0,3.0,84,0.00,,---,0.00,VWS V14.01,2013-01-13 01:08:00,
2013-01-12 19:13:00,70.1,64.7,29.67,WNW,297,0.0,3.0,83,0.00,,---,0.00,VWS V14.01,2013-01-13 01:13:00,
2013-01-12 19:18:00,70.1,65.1,29.66,NW,321,1.0,3.0,84,0.00,,---,0.00,VWS V14.01,2013-01-13 01:18:00,
2013-01-12 19:23:00,70.0,64.9,29.66,NNE,23,0.0,4.0,84,0.00,,---,0.00,VWS V14.01,2013-01-13 01:23:00,
2013-01-12 19:28:00,70.0,64.9,29.67,SW,228,1.0,4.0,84,0.00,,---,0.00,VWS V14.01,2013-01-13 01:28:00,
2013-01-12 19:33:00,69.9,64.5,29.67,North,359,2.0,2.0,83,0.00,,---,0.00,VWS V14.01,2013-01-13 01:33:00,
2013-01-12 19:38:00,69.9,64.5,29.67,NW,326,1.0,3.0,83,0.00,,---,0.00,VWS V14.01,2013-01-13 01:38:00,
2013-01-12 19:43:00,69.8,64.4,29.67,NW,319,0.0,4.0,83,0.00,,---,0.00,VWS V14.01,2013-01-13 01:43:00,
2013-01-12 19:48:00,69.8,64.4,29.67,NE,37,4.0,4.0,83,0.00,,---,0.00,VWS V14.01,2013-01-13 01:48:00,
2013-01-12 19:53:00,69.7,64.3,29.67,NE,49,0.0,4.0,83,0.00,,---,0.00,VWS V14.01,2013-01-13 01:53:00,
2013-01-12 19:58:00,69.7,64.3,29.68,North,349,1.0,4.0,83,0.00,,---,0.00,VWS V14.01,2013-01-13 01:58:00,
2013-01-12 20:03:00,69.7,64.3,29.68,NNE,32,0.0,2.0,83,0.00,,---,0.00,VWS V14.01,2013-01-13 02:03:00,
2013-01-12 20:08:00,69.6,64.2,29.68,NE,38,2.0,4.0,83,0.00,,---,0.00,VWS V14.01,2013-01-13 02:08:00,
2013-01-12 20:13:00,69.6,64.2,29.68,North,352,0.0,4.0,83,0.00,,---,0.00,VWS V14.01,2013-01-13 02:13:00,
2013-01-12 20:18:00,69.5,63.8,29.68,NNW,333,11.0,11.0,82,0.00,,---,0.00,VWS V14.01,2013-01-13 02:18:00,
2013-01-12 20:23:00,67.2,55.0,29.69,NNW,331,7.0,14.0,65,0.00,,---,0.00,VWS V14.01,2013-01-13 02:23:00,
2013-01-12 20:28:00,65.6,52.7,29.69,East,93,4.0,14.0,63,0.00,,---,0.00,VWS V14.01,2013-01-13 02:28:00,
2013-01-12 20:33:00,64.4,50.7,29.70,North,356,5.0,6.0,61,0.00,,---,0.00,VWS V14.01,2013-01-13 02:33:00,
2013-01-12 20:38:00,63.6,49.5,29.70,NNW,341,7.0,11.0,60,0.00,,---,0.00,VWS V14.01,2013-01-13 02:38:00,
2013-01-12 20:43:00,63.0,48.9,29.71,North,360,6.0,13.0,60,0.00,,---,0.00,VWS V14.01,2013-01-13 02:43:00,
2013-01-12 20:48:00,62.5,48.4,29.72,SSW,212,7.0,14.0,60,0.00,,---,0.00,VWS V14.01,2013-01-13 02:48:00,
2013-01-12 20:53:00,62.1,48.1,29.71,NNW,328,3.0,14.0,60,0.00,,---,0.00,VWS V14.01,2013-01-13 02:53:00,
2013-01-12 20:58:00,61.9,47.9,29.71,North,352,6.0,14.0,60,0.00,,---,0.00,VWS V14.01,2013-01-13 02:58:00,
2013-01-12 21:03:00,61.6,47.6,29.72,NW,311,7.0,8.0,60,0.00,,---,0.00,VWS V14.01,2013-01-13 03:03:00,
2013-01-12 21:08:00,61.2,46.8,29.72,NNW,338,8.0,14.0,59,0.00,,---,0.00,VWS V14.01,2013-01-13 03:08:00,
2013-01-12 21:13:00,60.9,46.9,29.72,East,81,7.0,16.0,60,0.00,,---,0.00,VWS V14.01,2013-01-13 03:13:00,
2013-01-12 21:18:00,60.7,47.2,29.72,WSW,242,3.0,16.0,61,0.00,,---,0.00,VWS V14.01,2013-01-13 03:18:00,
2013-01-12 21:23:00,60.5,47.0,29.72,North,354,6.0,16.0,61,0.00,,---,0.00,VWS V14.01,2013-01-13 03:23:00,
2013-01-12 21:28:00,60.3,46.4,29.72,NNW,345,5.0,16.0,60,0.00,,---,0.00,VWS V14.01,2013-01-13 03:28:00,
2013-01-12 21:33:00,59.9,46.0,29.72,NE,54,5.0,10.0,60,0.00,,---,0.00,VWS V14.01,2013-01-13 03:33:00,
2013-01-12 21:38:00,59.6,45.7,29.72,North,1,5.0,10.0,60,0.00,,---,0.00,VWS V14.01,2013-01-13 03:38:00,
2013-01-12 21:43:00,59.2,45.3,29.71,NNE,13,6.0,11.0,60,0.00,,---,0.00,VWS V14.01,2013-01-13 03:43:00,
2013-01-12 21:48:00,58.7,44.4,29.72,NNE,26,6.0,13.0,59,0.00,,---,0.00,VWS V14.01,2013-01-13 03:48:00,
2013-01-12 21:53:00,58.2,44.0,29.72,NNW,335,6.0,14.0,59,0.00,,---,0.00,VWS V14.01,2013-01-13 03:53:00,
2013-01-12 21:58:00,57.8,43.6,29.72,NE,40,2.0,15.0,59,0.00,,---,0.00,VWS V14.01,2013-01-13 03:58:00,
2013-01-12 22:03:00,57.5,43.3,29.72,NNE,19,6.0,12.0,59,0.00,,---,0.00,VWS V14.01,2013-01-13 04:03:00,
2013-01-12 22:08:00,57.2,43.0,29.73,NE,34,10.0,17.0,59,0.00,,---,0.00,VWS V14.01,2013-01-13 04:08:00,
2013-01-12 22:13:00,57.0,42.8,29.73,NNW,344,2.0,17.0,59,0.00,,---,0.00,VWS V14.01,2013-01-13 04:13:00,
2013-01-12 22:18:00,56.8,42.6,29.73,NNE,22,8.0,17.0,59,0.00,,---,0.00,VWS V14.01,2013-01-13 04:18:00,
2013-01-12 22:23:00,56.7,42.5,29.73,NE,36,4.0,17.0,59,0.00,,---,0.00,VWS V14.01,2013-01-13 04:23:00,
2013-01-12 22:28:00,56.5,42.8,29.74,ENE,63,4.0,17.0,60,0.00,,---,0.00,VWS V14.01,2013-01-13 04:28:00,
2013-01-12 22:33:00,56.3,42.6,29.74,NE,55,6.0,16.0,60,0.00,,---,0.00,VWS V14.01,2013-01-13 04:33:00,
2013-01-12 22:38:00,56.2,43.0,29.75,NW,323,6.0,16.0,61,0.00,,---,0.00,VWS V14.01,2013-01-13 04:38:00,
2013-01-12 22:43:00,56.0,42.8,29.75,NNE,27,10.0,16.0,61,0.00,,---,0.00,VWS V14.01,2013-01-13 04:43:00,
2013-01-12 22:48:00,55.9,42.7,29.75,ENE,68,9.0,16.0,61,0.00,,---,0.00,VWS V14.01,2013-01-13 04:48:00,
2013-01-12 22:53:00,55.7,42.9,29.76,NW,322,4.0,16.0,62,0.00,,---,0.00,VWS V14.01,2013-01-13 04:53:00,
2013-01-12 22:58:00,55.6,42.8,29.75,NE,42,2.0,16.0,62,0.00,,---,0.00,VWS V14.01,2013-01-13 04:58:00,
2013-01-12 23:00:00,55.5,42.7,29.76,North,4,8.0,16.0,62,0.00,,---,0.00,VWS V14.01,2013-01-13 05:00:00,
2013-01-12 23:01:00,55.5,42.7,29.76,NNW,348,4.0,8.0,62,0.00,,---,0.00,VWS V14.01,2013-01-13 05:01:00,
2013-01-12 23:02:00,55.4,42.6,29.75,ENE,59,16.0,16.0,62,0.00,,---,0.00,VWS V14.01,2013-01-13 05:02:00,
2013-01-12 23:07:00,55.2,42.4,29.76,North,358,8.0,16.0,62,0.00,,---,0.00,VWS V14.01,2013-01-13 05:07:00,
2013-01-12 23:12:00,55.0,42.2,29.77,NNW,331,7.0,16.0,62,0.00,,---,0.00,VWS V14.01,2013-01-13 05:12:00,
2013-01-12 23:17:00,54.8,42.0,29.76,NNE,18,7.0,16.0,62,0.00,,---,0.00,VWS V14.01,2013-01-13 05:17:00,
2013-01-12 23:22:00,54.6,41.9,29.77,NNW,333,6.0,19.0,62,0.00,,---,0.00,VWS V14.01,2013-01-13 05:22:00,
2013-01-12 23:27:00,54.4,42.1,29.78,NNW,331,3.0,19.0,63,0.00,,---,0.00,VWS V14.01,2013-01-13 05:27:00,
2013-01-12 23:32:00,54.3,42.4,29.77,NNW,346,7.0,14.0,64,0.00,,---,0.00,VWS V14.01,2013-01-13 05:32:00,
2013-01-12 23:37:00,54.1,42.2,29.78,NNW,348,6.0,14.0,64,0.00,,---,0.00,VWS V14.01,2013-01-13 05:37:00,
2013-01-12 23:42:00,53.9,42.0,29.79,South,174,4.0,16.0,64,0.00,,---,0.00,VWS V14.01,2013-01-13 05:42:00,